Tracking 23099 objects as of 13-May-2021
HD Live streaming from Space Station
objects crossing your sky now

ONEWEB-0020

Track ONEWEB-0020 now!
10-day predictions
ONEWEB-0020 is classified as:


NORAD ID: 45133
Int'l Code: 2019-071K
Perigee: 1,226.6 km
Apogee: 1,231.1 km
Inclination: 87.9 °
Period: 109.9 minutes
Semi major axis: 7599 km
RCS: Unknown
Launch date: November 2, 2019
Source: United States (US)
Launch site: WALLOPS ISLAND (WLPIS)
aabbcc
Your satellite tracking list
Your tracking list is empty




NASA's NSSDC Master Catalog

Two Line Element Set (TLE):
1 45133U 20008C   21133.51827390  .00000656  00000-0  18435-2 0  9991
2 45133  87.8890  46.1479 0002995  86.1914 273.9555 13.10372870 64663
Source of the keplerian elements: AFSPC